When you browse on this site, cookies collect data to enhance your experience and personalize the content and advertising you see.
Visit our Privacy Policy to learn more. By continuing to use the site, you agree to this use of cookies and data.
  • En España
  • Lista de países
  • Para 7 días
  • Temperatura del agua
  • El tiempo en el mapa
  • Informadores
  • user-avatar
    Iniciar sesión

    Tiempo cada hora Prutz

    Hoy, 6 Junio, Sábado

    Tiempo Temperatura Precipitaciones Viento Presión Humedad
    00:00 +5°C° 0 mm 2 mps 625 mmHg 89%
    01:00 +5°C° 0 mm 2 mps 625 mmHg 89%
    02:00 +5°C° 0 mm 2 mps 625 mmHg 89%
    03:00 +5°C° 0 mm 2 mps 625 mmHg 89%
    04:00 +5°C° 0 mm 2 mps 625 mmHg 89%
    05:00 +7°C° 0 mm 2 mps 626 mmHg 85%
    06:00 +8°C° 0 mm 2 mps 626 mmHg 82%
    07:00 +10°C° 0 mm 2 mps 627 mmHg 79%
    08:00 +12°C° 0.1 mm 2 mps 628 mmHg 75%
    09:00 +14°C° 0.1 mm 2 mps 628 mmHg 71%
    10:00 +15°C° 0.1 mm 2 mps 628 mmHg 68%
    11:00 +15°C° 0.7 mm 2 mps 628 mmHg 71%
    12:00 +15°C° 0.7 mm 2 mps 628 mmHg 75%
    13:00 +14°C° 0.7 mm 2 mps 628 mmHg 79%
    14:00 +14°C° 1.1 mm 2 mps 628 mmHg 82%
    15:00 +13°C° 1.1 mm 2 mps 628 mmHg 86%
    16:00 +13°C° 1.1 mm 1 mps 628 mmHg 90%
    17:00 +12°C° 1.1 mm 1 mps 628 mmHg 92%
    18:00 +12°C° 1.1 mm 1 mps 627 mmHg 94%
    19:00 +11°C° 1.1 mm 1 mps 627 mmHg 96%
    20:00 +11°C° 0.4 mm 1 mps 627 mmHg 97%
    21:00 +10°C° 0.4 mm 1 mps 628 mmHg 97%
    22:00 +10°C° 0.4 mm 1 mps 628 mmHg 98%
    23:00 +9°C° 0.1 mm 1 mps 627 mmHg 98%

    Mañana, 7 Junio, Domingo

    Tiempo Temperatura Precipitaciones Viento Presión Humedad
    00:00 +9°C° 0.1 mm 1 mps 627 mmHg 97%
    01:00 +9°C° 0.1 mm 1 mps 627 mmHg 97%
    02:00 +9°C° 0 mm 1 mps 627 mmHg 97%
    03:00 +8°C° 0 mm 1 mps 627 mmHg 97%
    04:00 +8°C° 0 mm 1 mps 626 mmHg 97%
    05:00 +9°C° 0.1 mm 1 mps 627 mmHg 95%
    06:00 +10°C° 0.1 mm 1 mps 627 mmHg 94%
    07:00 +10°C° 0.1 mm 1 mps 627 mmHg 92%
    08:00 +10°C° 0.4 mm 1 mps 628 mmHg 92%
    09:00 +11°C° 0.4 mm 1 mps 628 mmHg 93%
    10:00 +10°C° 0.4 mm 2 mps 628 mmHg 93%
    11:00 +9°C° 2 mm 2 mps 628 mmHg 94%
    12:00 +8°C° 2 mm 2 mps 628 mmHg 96%
    13:00 +8°C° 2 mm 1 mps 628 mmHg 98%
    14:00 +7°C° 3.1 mm 1 mps 628 mmHg 98%
    15:00 +7°C° 3.1 mm 1 mps 628 mmHg 98%
    16:00 +6°C° 3.1 mm 1 mps 628 mmHg 98%
    17:00 +6°C° 2 mm 1 mps 628 mmHg 98%
    18:00 +6°C° 2 mm 1 mps 628 mmHg 98%
    19:00 +6°C° 2 mm 1 mps 628 mmHg 97%
    20:00 +6°C° 0.1 mm 1 mps 628 mmHg 97%
    21:00 +5°C° 0.1 mm 0 mps 628 mmHg 97%
    22:00 +4°C° 0.1 mm 0 mps 628 mmHg 97%
    23:00 +4°C° 0 mm 0 mps 628 mmHg 96%

    Pasado mañana, 8 Junio, Lunes

    Tiempo Temperatura Precipitaciones Viento Presión Humedad
    00:00 +4°C° 0 mm 0 mps 628 mmHg 96%
    01:00 +4°C° 0 mm 0 mps 628 mmHg 95%
    02:00 +4°C° 0 mm 0 mps 628 mmHg 95%
    03:00 +4°C° 0 mm 0 mps 628 mmHg 96%
    04:00 +4°C° 0 mm 0 mps 628 mmHg 96%
    05:00 +4°C° 0 mm 0 mps 628 mmHg 96%
    06:00 +5°C° 0 mm 0 mps 628 mmHg 96%
    07:00 +7°C° 0 mm 1 mps 628 mmHg 96%
    08:00 +7°C° 0 mm 1 mps 629 mmHg 95%
    09:00 +8°C° 0 mm 1 mps 629 mmHg 95%
    10:00 +8°C° 0 mm 1 mps 629 mmHg 94%
    11:00 +9°C° 0 mm 1 mps 629 mmHg 92%
    12:00 +10°C° 0 mm 1 mps 629 mmHg 90%
    13:00 +10°C° 0 mm 1 mps 630 mmHg 87%
    14:00 +11°C° 0.1 mm 1 mps 630 mmHg 87%
    15:00 +10°C° 0.1 mm 2 mps 630 mmHg 86%
    16:00 +10°C° 0.1 mm 2 mps 630 mmHg 86%
    17:00 +10°C° 0.1 mm 2 mps 630 mmHg 88%
    18:00 +9°C° 0.1 mm 2 mps 629 mmHg 90%
    19:00 +10°C° 0.1 mm 1 mps 629 mmHg 93%
    20:00 +9°C° 0.3 mm 1 mps 629 mmHg 94%
    21:00 +9°C° 0.3 mm 1 mps 630 mmHg 96%
    22:00 +8°C° 0.3 mm 1 mps 630 mmHg 98%
    23:00 +8°C° 0.5 mm 1 mps 630 mmHg 98%

    9 Junio, Martes

    Tiempo Temperatura Precipitaciones Viento Presión Humedad
    00:00 +7°C° 0.5 mm 0 mps 630 mmHg 98%
    01:00 +7°C° 0.5 mm 0 mps 630 mmHg 98%
    02:00 +7°C° 0.7 mm 0 mps 629 mmHg 98%
    03:00 +7°C° 0.7 mm 0 mps 629 mmHg 98%
    04:00 +7°C° 0.7 mm 0 mps 629 mmHg 98%
    05:00 +7°C° 0.3 mm 0 mps 629 mmHg 98%
    06:00 +7°C° 0.3 mm 0 mps 630 mmHg 97%
    07:00 +8°C° 0.3 mm 0 mps 630 mmHg 97%
    08:00 +8°C° 0.1 mm 0 mps 630 mmHg 96%
    09:00 +8°C° 0.1 mm 0 mps 630 mmHg 95%
    10:00 +10°C° 0.1 mm 1 mps 631 mmHg 95%
    11:00 +10°C° 0.2 mm 1 mps 631 mmHg 93%
    12:00 +11°C° 0.2 mm 1 mps 631 mmHg 92%
    13:00 +11°C° 0.2 mm 1 mps 631 mmHg 91%
    14:00 +11°C° 0.7 mm 1 mps 631 mmHg 93%
    15:00 +11°C° 0.7 mm 1 mps 631 mmHg 95%
    16:00 +10°C° 0.7 mm 1 mps 631 mmHg 96%
    17:00 +10°C° 1.4 mm 1 mps 631 mmHg 97%
    18:00 +9°C° 1.4 mm 1 mps 630 mmHg 98%
    19:00 +9°C° 1.4 mm 1 mps 630 mmHg 98%
    20:00 +9°C° 0.7 mm 1 mps 631 mmHg 98%
    21:00 +9°C° 0.7 mm 1 mps 631 mmHg 97%
    22:00 +9°C° 0.7 mm 1 mps 631 mmHg 97%
    23:00 +7°C° 0 mm 0 mps 631 mmHg 96%

    10 Junio, Miércoles

    Tiempo Temperatura Precipitaciones Viento Presión Humedad
    00:00 +7°C° 0 mm 0 mps 630 mmHg 96%
    01:00 +7°C° 0 mm 0 mps 630 mmHg 95%
    02:00 +6°C° 0 mm 0 mps 630 mmHg 95%
    03:00 +6°C° 0 mm 0 mps 630 mmHg 95%
    04:00 +5°C° 0 mm 0 mps 629 mmHg 95%
    05:00 +6°C° 0.1 mm 0 mps 630 mmHg 94%
    06:00 +7°C° 0.1 mm 0 mps 630 mmHg 94%
    07:00 +8°C° 0.1 mm 0 mps 631 mmHg 94%
    08:00 +8°C° 1.2 mm 0 mps 631 mmHg 95%
    09:00 +8°C° 1.2 mm 0 mps 631 mmHg 96%
    10:00 +8°C° 1.2 mm 0 mps 631 mmHg 97%
    11:00 +8°C° 1.1 mm 0 mps 631 mmHg 96%
    12:00 +8°C° 1.1 mm 0 mps 631 mmHg 96%
    13:00 +8°C° 1.1 mm 0 mps 631 mmHg 95%
    14:00 +8°C° 0.2 mm 0 mps 631 mmHg 95%
    15:00 +10°C° 0.2 mm 1 mps 631 mmHg 95%
    16:00 +10°C° 0.2 mm 1 mps 631 mmHg 96%
    17:00 +10°C° 0.1 mm 1 mps 631 mmHg 96%
    18:00 +10°C° 0.1 mm 1 mps 631 mmHg 97%
    19:00 +9°C° 0.1 mm 1 mps 632 mmHg 98%
    20:00 +9°C° 0.1 mm 1 mps 632 mmHg 98%
    21:00 +9°C° 0.1 mm 1 mps 632 mmHg 98%
    22:00 +8°C° 0.1 mm 0 mps 632 mmHg 98%
    23:00 +8°C° 0 mm 0 mps 632 mmHg 98%

    11 Junio, Jueves

    Tiempo Temperatura Precipitaciones Viento Presión Humedad
    00:00 +7°C° 0 mm 0 mps 632 mmHg 98%
    01:00 +7°C° 0 mm 0 mps 632 mmHg 98%
    02:00 +7°C° 0.1 mm 0 mps 631 mmHg 97%
    03:00 +7°C° 0.1 mm 0 mps 631 mmHg 97%
    04:00 +7°C° 0.1 mm 0 mps 631 mmHg 97%
    05:00 +7°C° 0.6 mm 0 mps 631 mmHg 97%
    06:00 +9°C° 0.6 mm 1 mps 631 mmHg 96%
    07:00 +9°C° 0.6 mm 1 mps 632 mmHg 96%
    08:00 +9°C° 0.8 mm 1 mps 632 mmHg 96%
    09:00 +9°C° 0.8 mm 1 mps 632 mmHg 96%
    10:00 +9°C° 0.8 mm 1 mps 632 mmHg 96%
    11:00 +8°C° 0.3 mm 2 mps 632 mmHg 96%
    12:00 +8°C° 0.3 mm 2 mps 632 mmHg 96%
    13:00 +9°C° 0.3 mm 2 mps 632 mmHg 96%
    14:00 +8°C° 0.2 mm 2 mps 631 mmHg 97%
    15:00 +8°C° 0.2 mm 2 mps 631 mmHg 97%
    16:00 +8°C° 0.2 mm 2 mps 631 mmHg 97%
    17:00 +9°C° 0.1 mm 1 mps 631 mmHg 97%
    18:00 +9°C° 0.1 mm 1 mps 631 mmHg 98%
    19:00 +9°C° 0.1 mm 1 mps 631 mmHg 98%
    20:00 +9°C° 0.2 mm 1 mps 631 mmHg 98%
    21:00 +8°C° 0.2 mm 1 mps 631 mmHg 98%
    22:00 +7°C° 0.2 mm 0 mps 631 mmHg 98%
    23:00 +7°C° 0 mm 0 mps 630 mmHg 98%
    Mostrar más